Simultaneous Nadir Overpasses (SNOs) Predictions

Prediction of SNOs between GOES-17 and NOAA-19 Satellite Orbit:

Table of predicted SNOs for the next 14.0 days since TLE Epoch: 6/25/2022
Index Date Time (GOES-17) GOES-17 Lat,Lon NOAA-19 Lat,Lon Distance(km) Time Diff (sec)
1 06/25/2022 05:02:59 -0.07,-137.20 -0.46,-138.83 186.36 80
2 06/26/2022 04:53:49 -0.07,-137.20 0.22,-135.94 143.52 80
3 06/27/2022 04:41:59 -0.07,-137.20 0.89,-133.05 473.19 80
4 06/28/2022 17:11:38 0.06,-137.20 0.92,-140.79 410.83 80
5 06/29/2022 16:59:47 0.06,-137.19 0.22,-137.91 81.42 80
6 06/30/2022 16:50:36 0.05,-137.19 -0.42,-135.01 247.88 80
7 07/03/2022 05:08:39 -0.04,-137.17 -0.66,-139.93 314.74 80
8 07/04/2022 04:59:27 -0.04,-137.16 -0.04,-137.03 14.35 80
9 07/05/2022 04:47:37 -0.04,-137.15 0.65,-134.14 342.88 80
10 07/07/2022 17:05:24 0.04,-137.12 0.45,-138.99 213.16 80
11 07/08/2022 16:56:12 0.04,-137.10 -0.20,-136.10 115.13 80
